• In Österreich
  • Länderverzeichnis
  • Für 7 Tage
  • Wassertemperatur
  • Satellitenkarten
  • Wetterkarte
  • News
  • Widgets
  • user-avatar
    Anmelden

    Stündliche Wetter Uzunköprü

    Heute, 22 Juli, Sonntag

    Zeit Temperatur Niederschläge Wind Luftdruck Luftfeuchtigkeit
    00:00 +26°C° 0 mm 1 m/S 755 mmHg 63%
    01:00 +26°C° 0 mm 1 m/S 754 mmHg 64%
    02:00 +25°C° 0 mm 1 m/S 754 mmHg 64%
    03:00 +25°C° 0 mm 1 m/S 754 mmHg 65%
    04:00 +25°C° 0 mm 1 m/S 754 mmHg 65%
    05:00 +24°C° 0 mm 1 m/S 754 mmHg 65%
    06:00 +26°C° 0 mm 1 m/S 754 mmHg 59%
    07:00 +28°C° 0 mm 1 m/S 754 mmHg 53%
    08:00 +30°C° 0 mm 1 m/S 754 mmHg 47%
    09:00 +31°C° 0 mm 1 m/S 754 mmHg 42%
    10:00 +34°C° 0 mm 2 m/S 754 mmHg 37%
    11:00 +36°C° 0 mm 2 m/S 754 mmHg 31%
    12:00 +36°C° 0 mm 2 m/S 754 mmHg 30%
    13:00 +37°C° 0 mm 2 m/S 753 mmHg 28%
    14:00 +38°C° 0 mm 3 m/S 753 mmHg 27%
    15:00 +38°C° 0 mm 3 m/S 752 mmHg 28%
    16:00 +38°C° 0 mm 4 m/S 752 mmHg 29%
    17:00 +37°C° 0 mm 4 m/S 752 mmHg 31%
    18:00 +35°C° 0 mm 4 m/S 751 mmHg 37%
    19:00 +33°C° 0 mm 3 m/S 751 mmHg 43%
    20:00 +30°C° 0 mm 3 m/S 751 mmHg 49%
    21:00 +29°C° 0,1 mm 2 m/S 751 mmHg 52%
    22:00 +28°C° 0,1 mm 2 m/S 751 mmHg 55%
    23:00 +27°C° 0,1 mm 1 m/S 751 mmHg 58%

    Morgen, 23 Juli, Montag

    Zeit Temperatur Niederschläge Wind Luftdruck Luftfeuchtigkeit
    00:00 +27°C° 0,1 mm 1 m/S 751 mmHg 60%
    01:00 +26°C° 0,1 mm 1 m/S 751 mmHg 62%
    02:00 +26°C° 0,1 mm 1 m/S 750 mmHg 64%
    03:00 +25°C° 0 mm 1 m/S 750 mmHg 64%
    04:00 +25°C° 0 mm 1 m/S 750 mmHg 65%
    05:00 +25°C° 0 mm 1 m/S 750 mmHg 65%
    06:00 +26°C° 0 mm 1 m/S 750 mmHg 60%
    07:00 +28°C° 0 mm 1 m/S 750 mmHg 55%
    08:00 +29°C° 0 mm 2 m/S 749 mmHg 50%
    09:00 +31°C° 0 mm 2 m/S 749 mmHg 46%
    10:00 +33°C° 0 mm 1 m/S 749 mmHg 41%
    11:00 +35°C° 0 mm 1 m/S 749 mmHg 36%
    12:00 +36°C° 0 mm 2 m/S 749 mmHg 34%
    13:00 +37°C° 0 mm 2 m/S 748 mmHg 32%
    14:00 +38°C° 0 mm 2 m/S 748 mmHg 30%
    15:00 +38°C° 0 mm 2 m/S 747 mmHg 31%
    16:00 +37°C° 0 mm 3 m/S 747 mmHg 33%
    17:00 +37°C° 0 mm 3 m/S 747 mmHg 34%
    18:00 +34°C° 0,4 mm 3 m/S 747 mmHg 42%
    19:00 +31°C° 0,4 mm 3 m/S 747 mmHg 51%
    20:00 +29°C° 0,4 mm 4 m/S 747 mmHg 59%
    21:00 +28°C° 0,9 mm 4 m/S 747 mmHg 64%
    22:00 +27°C° 0,9 mm 4 m/S 747 mmHg 69%
    23:00 +26°C° 0,9 mm 4 m/S 747 mmHg 74%

    übermorgen, 24 Juli, Dienstag

    Zeit Temperatur Niederschläge Wind Luftdruck Luftfeuchtigkeit
    00:00 +26°C° 0,6 mm 4 m/S 747 mmHg 75%
    01:00 +25°C° 0,6 mm 3 m/S 747 mmHg 77%
    02:00 +25°C° 0,6 mm 3 m/S 746 mmHg 78%
    03:00 +25°C° 0,6 mm 3 m/S 746 mmHg 79%
    04:00 +23°C° 0,6 mm 4 m/S 746 mmHg 80%
    05:00 +23°C° 0,6 mm 4 m/S 746 mmHg 81%
    06:00 +23°C° 1,4 mm 4 m/S 746 mmHg 80%
    07:00 +25°C° 1,4 mm 5 m/S 747 mmHg 78%
    08:00 +25°C° 1,4 mm 5 m/S 747 mmHg 77%
    09:00 +26°C° 0,9 mm 5 m/S 747 mmHg 73%
    10:00 +26°C° 0,9 mm 5 m/S 748 mmHg 70%
    11:00 +27°C° 0,9 mm 5 m/S 748 mmHg 67%
    12:00 +28°C° 0,3 mm 5 m/S 748 mmHg 61%
    13:00 +29°C° 0,3 mm 4 m/S 748 mmHg 55%
    14:00 +31°C° 0,3 mm 3 m/S 747 mmHg 49%
    15:00 +31°C° 0,4 mm 3 m/S 748 mmHg 49%
    16:00 +31°C° 0,4 mm 2 m/S 748 mmHg 49%
    17:00 +31°C° 0,4 mm 2 m/S 748 mmHg 48%
    18:00 +29°C° 0,3 mm 2 m/S 748 mmHg 53%
    19:00 +28°C° 0,3 mm 2 m/S 748 mmHg 58%
    20:00 +27°C° 0,3 mm 2 m/S 748 mmHg 63%
    21:00 +26°C° 0,3 mm 2 m/S 749 mmHg 67%
    22:00 +25°C° 0,3 mm 1 m/S 749 mmHg 71%
    23:00 +24°C° 0,3 mm 1 m/S 749 mmHg 75%

    25 Juli, Mittwoch

    Zeit Temperatur Niederschläge Wind Luftdruck Luftfeuchtigkeit
    00:00 +24°C° 0,2 mm 1 m/S 749 mmHg 77%
    01:00 +24°C° 0,2 mm 1 m/S 749 mmHg 78%
    02:00 +23°C° 0,2 mm 2 m/S 749 mmHg 80%
    03:00 +23°C° 0 mm 2 m/S 749 mmHg 81%
    04:00 +23°C° 0 mm 2 m/S 749 mmHg 83%
    05:00 +21°C° 0 mm 2 m/S 749 mmHg 84%
    06:00 +24°C° 0 mm 2 m/S 750 mmHg 78%
    07:00 +25°C° 0 mm 3 m/S 750 mmHg 72%
    08:00 +26°C° 0 mm 3 m/S 750 mmHg 66%
    09:00 +28°C° 0 mm 3 m/S 750 mmHg 60%
    10:00 +29°C° 0 mm 3 m/S 750 mmHg 54%
    11:00 +31°C° 0 mm 3 m/S 750 mmHg 48%
    12:00 +31°C° 0,2 mm 3 m/S 750 mmHg 48%
    13:00 +31°C° 0,2 mm 3 m/S 750 mmHg 47%
    14:00 +31°C° 0,2 mm 3 m/S 750 mmHg 46%
    15:00 +33°C° 0,2 mm 3 m/S 750 mmHg 46%
    16:00 +33°C° 0,2 mm 3 m/S 750 mmHg 47%
    17:00 +32°C° 0,2 mm 2 m/S 750 mmHg 47%
    18:00 +30°C° 0,1 mm 2 m/S 750 mmHg 52%
    19:00 +29°C° 0,1 mm 2 m/S 750 mmHg 56%
    20:00 +28°C° 0,1 mm 2 m/S 751 mmHg 61%
    21:00 +27°C° 0,1 mm 2 m/S 751 mmHg 65%
    22:00 +26°C° 0,1 mm 2 m/S 751 mmHg 69%
    23:00 +26°C° 0,1 mm 2 m/S 751 mmHg 73%

    26 Juli, Donnerstag

    Zeit Temperatur Niederschläge Wind Luftdruck Luftfeuchtigkeit
    00:00 +25°C° 0,1 mm 2 m/S 751 mmHg 75%
    01:00 +25°C° 0,1 mm 2 m/S 751 mmHg 78%
    02:00 +24°C° 0,1 mm 2 m/S 751 mmHg 81%
    03:00 +24°C° 0,1 mm 2 m/S 751 mmHg 83%
    04:00 +23°C° 0,1 mm 2 m/S 751 mmHg 84%
    05:00 +23°C° 0,1 mm 2 m/S 751 mmHg 85%
    06:00 +25°C° 0 mm 2 m/S 751 mmHg 79%
    07:00 +26°C° 0 mm 3 m/S 752 mmHg 73%
    08:00 +27°C° 0 mm 3 m/S 752 mmHg 68%
    09:00 +29°C° 0 mm 3 m/S 752 mmHg 61%
    10:00 +30°C° 0 mm 3 m/S 752 mmHg 55%
    11:00 +33°C° 0 mm 3 m/S 752 mmHg 49%
    12:00 +33°C° 0,1 mm 3 m/S 751 mmHg 47%
    13:00 +32°C° 0,1 mm 2 m/S 751 mmHg 46%
    14:00 +34°C° 0,1 mm 2 m/S 751 mmHg 45%
    15:00 +34°C° 0,1 mm 2 m/S 751 mmHg 46%
    16:00 +34°C° 0,1 mm 2 m/S 751 mmHg 47%
    17:00 +32°C° 0,1 mm 2 m/S 751 mmHg 48%
    18:00 +31°C° 0,5 mm 2 m/S 751 mmHg 54%
    19:00 +29°C° 0,5 mm 2 m/S 752 mmHg 60%
    20:00 +28°C° 0,5 mm 2 m/S 752 mmHg 66%
    21:00 +27°C° 0,5 mm 2 m/S 752 mmHg 71%
    22:00 +26°C° 0,5 mm 2 m/S 752 mmHg 76%
    23:00 +26°C° 0,5 mm 1 m/S 752 mmHg 80%

    27 Juli, Freitag

    Zeit Temperatur Niederschläge Wind Luftdruck Luftfeuchtigkeit
    00:00 +25°C° 0,1 mm 1 m/S 752 mmHg 82%
    01:00 +25°C° 0,1 mm 1 m/S 752 mmHg 84%
    02:00 +25°C° 0,1 mm 1 m/S 752 mmHg 86%
    03:00 +24°C° 0 mm 1 m/S 752 mmHg 87%
    04:00 +24°C° 0 mm 2 m/S 753 mmHg 88%
    05:00 +24°C° 0 mm 2 m/S 753 mmHg 89%
    06:00 +25°C° 0 mm 2 m/S 753 mmHg 83%
    07:00 +26°C° 0 mm 2 m/S 753 mmHg 76%
    08:00 +28°C° 0 mm 2 m/S 753 mmHg 70%
    09:00 +29°C° 0,1 mm 2 m/S 753 mmHg 63%
    10:00 +31°C° 0,1 mm 2 m/S 753 mmHg 56%
    11:00 +32°C° 0,1 mm 2 m/S 753 mmHg 50%
    12:00 +34°C° 0,3 mm 2 m/S 753 mmHg 47%
    13:00 +34°C° 0,3 mm 2 m/S 753 mmHg 45%
    14:00 +35°C° 0,3 mm 2 m/S 752 mmHg 42%
    15:00 +35°C° 0 mm 2 m/S 752 mmHg 42%
    16:00 +35°C° 0 mm 2 m/S 752 mmHg 42%
    17:00 +35°C° 0 mm 2 m/S 752 mmHg 42%
    18:00 +34°C° 0,1 mm 2 m/S 752 mmHg 48%
    19:00 +31°C° 0,1 mm 2 m/S 753 mmHg 53%
    20:00 +29°C° 0,1 mm 2 m/S 753 mmHg 58%
    21:00 +29°C° 0,2 mm 2 m/S 753 mmHg 62%
    22:00 +28°C° 0,2 mm 1 m/S 753 mmHg 66%
    23:00 +27°C° 0,2 mm 1 m/S 753 mmHg 70%
    Mehr zeigen